Time,TemperatureF,DewpointF,PressureIn,WindDirection,WindDirectionDegrees,WindSpeedMPH,WindSpeedGustMPH,Humidity,HourlyPrecipIn,Conditions,Clouds,dailyrainin,SoftwareType,DateUTC
2013-01-17 00:02:00,32.0,27.0,30.29,West,275,0.0,2.0,81,0.00,,,0.00,,2013-01-17 06:02:00,
2013-01-17 00:12:00,33.0,27.0,30.29,NW,316,0.0,6.0,79,0.00,,,0.00,,2013-01-17 06:12:00,
2013-01-17 00:22:00,33.0,27.0,30.29,NW,316,0.0,6.0,79,0.00,,,0.00,,2013-01-17 06:22:00,
2013-01-17 00:32:00,33.0,27.0,30.31,NW,319,2.0,6.0,77,0.00,,,0.00,,2013-01-17 06:32:00,
2013-01-17 00:42:00,33.0,27.0,30.31,NW,319,2.0,6.0,77,0.00,,,0.00,,2013-01-17 06:42:00,
2013-01-17 00:52:00,34.0,27.0,30.31,NW,319,2.0,6.0,76,0.00,,,0.00,,2013-01-17 06:52:00,
2013-01-17 01:02:00,34.0,27.0,30.32,NW,321,0.0,9.0,76,0.00,,,0.00,,2013-01-17 07:02:00,
2013-01-17 01:12:00,34.0,27.0,30.32,NW,321,0.0,9.0,76,0.00,,,0.00,,2013-01-17 07:12:00,
2013-01-17 01:22:00,34.0,27.0,30.32,NW,321,0.0,7.0,76,0.00,,,0.00,,2013-01-17 07:22:00,
2013-01-17 01:32:00,34.0,27.0,30.33,NNW,331,2.0,6.0,76,0.00,,,0.00,,2013-01-17 07:32:00,
2013-01-17 01:42:00,34.0,27.0,30.33,NNW,331,2.0,6.0,76,0.00,,,0.00,,2013-01-17 07:42:00,
2013-01-17 01:52:00,33.0,27.0,30.34,NW,305,1.0,4.0,77,0.00,,,0.00,,2013-01-17 07:52:00,
2013-01-17 02:02:00,33.0,27.0,30.35,NW,306,0.0,6.0,77,0.00,,,0.00,,2013-01-17 08:02:00,
2013-01-17 02:12:00,33.0,27.0,30.35,NW,306,0.0,6.0,77,0.00,,,0.00,,2013-01-17 08:12:00,
2013-01-17 02:22:00,32.0,26.0,30.35,NW,306,0.0,3.0,78,0.00,,,0.00,,2013-01-17 08:22:00,
2013-01-17 02:32:00,32.0,26.0,30.36,NW,309,1.0,6.0,79,0.00,,,0.00,,2013-01-17 08:32:00,
2013-01-17 02:43:00,32.0,26.0,30.36,NW,309,1.0,6.0,79,0.00,,,0.00,,2013-01-17 08:43:00,
2013-01-17 02:52:00,32.0,27.0,30.37,NW,309,0.0,3.0,80,0.00,,,0.00,,2013-01-17 08:52:00,
2013-01-17 03:02:00,31.0,26.0,30.37,NW,310,1.0,4.0,80,0.00,,,0.00,,2013-01-17 09:02:00,
2013-01-17 03:12:00,31.0,26.0,30.37,NW,310,1.0,4.0,80,0.00,,,0.00,,2013-01-17 09:12:00,
2013-01-17 03:22:00,31.0,26.0,30.37,NW,315,1.0,5.0,81,0.00,,,0.00,,2013-01-17 09:22:00,
2013-01-17 03:32:00,31.0,26.0,30.38,NW,322,1.0,6.0,82,0.00,,,0.00,,2013-01-17 09:32:00,
2013-01-17 03:42:00,31.0,26.0,30.38,NW,322,1.0,6.0,82,0.00,,,0.00,,2013-01-17 09:42:00,
2013-01-17 03:52:00,31.0,26.0,30.39,NW,325,1.0,6.0,82,0.00,,,0.00,,2013-01-17 09:52:00,
2013-01-17 04:02:00,31.0,26.0,30.39,NW,319,1.0,5.0,83,0.00,,,0.00,,2013-01-17 10:02:00,
2013-01-17 04:12:00,31.0,26.0,30.39,NW,319,1.0,5.0,83,0.00,,,0.00,,2013-01-17 10:12:00,
2013-01-17 04:22:00,30.0,25.0,30.40,NNW,329,2.0,7.0,83,0.00,,,0.00,,2013-01-17 10:22:00,
2013-01-17 04:32:00,31.0,26.0,30.40,NNW,338,4.0,8.0,83,0.00,,,0.00,,2013-01-17 10:32:00,
2013-01-17 04:42:00,31.0,26.0,30.40,NNW,338,4.0,8.0,83,0.00,,,0.00,,2013-01-17 10:42:00,
2013-01-17 04:52:00,30.0,25.0,30.41,NW,312,2.0,7.0,83,0.00,,,0.00,,2013-01-17 10:52:00,
2013-01-17 05:02:00,30.0,26.0,30.41,NW,325,1.0,7.0,84,0.00,,,0.00,,2013-01-17 11:02:00,
2013-01-17 05:12:00,30.0,26.0,30.41,NW,325,1.0,7.0,84,0.00,,,0.00,,2013-01-17 11:12:00,
2013-01-17 05:22:00,30.0,26.0,30.42,NW,305,1.0,10.0,84,0.00,,,0.00,,2013-01-17 11:22:00,
2013-01-17 05:33:00,29.0,25.0,30.43,NW,324,2.0,10.0,85,0.00,,,0.00,,2013-01-17 11:33:00,
2013-01-17 05:42:00,29.0,25.0,30.43,NW,324,2.0,10.0,85,0.00,,,0.00,,2013-01-17 11:42:00,
2013-01-17 05:52:00,29.0,25.0,30.44,NW,317,1.0,9.0,85,0.00,,,0.00,,2013-01-17 11:52:00,
2013-01-17 06:02:00,29.0,25.0,30.44,NW,323,4.0,12.0,86,0.00,,,0.00,,2013-01-17 12:02:00,
2013-01-17 06:12:00,29.0,25.0,30.44,NW,323,4.0,12.0,86,0.00,,,0.00,,2013-01-17 12:12:00,
2013-01-17 06:22:00,28.0,24.0,30.45,NNW,331,3.0,6.0,86,0.00,,,0.00,,2013-01-17 12:22:00,
2013-01-17 06:33:00,28.0,24.0,30.46,NW,325,0.0,7.0,86,0.00,,,0.00,,2013-01-17 12:33:00,
2013-01-17 06:42:00,28.0,24.0,30.46,NW,325,0.0,7.0,86,0.00,,,0.00,,2013-01-17 12:42:00,
2013-01-17 06:52:00,28.0,25.0,30.47,NNW,328,0.0,5.0,87,0.00,,,0.00,,2013-01-17 12:52:00,
2013-01-17 07:03:00,27.0,24.0,30.47,NW,314,0.0,3.0,87,0.00,,,0.00,,2013-01-17 13:03:00,
2013-01-17 07:12:00,27.0,24.0,30.47,NW,314,0.0,3.0,87,0.00,,,0.00,,2013-01-17 13:12:00,
2013-01-17 07:22:00,27.0,24.0,30.48,NW,318,0.0,5.0,88,0.00,,,0.00,,2013-01-17 13:22:00,
2013-01-17 07:33:00,26.0,23.0,30.48,NW,315,0.0,4.0,88,0.00,,,0.00,,2013-01-17 13:33:00,
2013-01-17 07:43:00,26.0,23.0,30.48,NW,315,0.0,4.0,88,0.00,,,0.00,,2013-01-17 13:43:00,
2013-01-17 07:52:00,26.0,23.0,30.49,NW,311,1.0,5.0,88,0.00,,,0.00,,2013-01-17 13:52:00,
2013-01-17 08:03:00,26.0,23.0,30.49,NW,319,1.0,7.0,89,0.00,,,0.00,,2013-01-17 14:03:00,
2013-01-17 08:12:00,26.0,23.0,30.49,NW,319,1.0,7.0,89,0.00,,,0.00,,2013-01-17 14:12:00,
2013-01-17 08:23:00,26.0,23.0,30.49,NW,325,0.0,4.0,89,0.00,,,0.00,,2013-01-17 14:23:00,
2013-01-17 08:33:00,26.0,23.0,30.49,NW,323,0.0,4.0,90,0.00,,,0.00,,2013-01-17 14:33:00,
2013-01-17 08:42:00,26.0,23.0,30.49,NW,323,0.0,4.0,90,0.00,,,0.00,,2013-01-17 14:42:00,
2013-01-17 08:53:00,26.0,23.0,30.50,NNW,329,0.0,5.0,90,0.00,,,0.00,,2013-01-17 14:53:00,
2013-01-17 09:03:00,27.0,24.0,30.51,NNW,330,2.0,6.0,90,0.00,,,0.00,,2013-01-17 15:03:00,
2013-01-17 09:12:00,27.0,24.0,30.51,NNW,330,2.0,6.0,90,0.00,,,0.00,,2013-01-17 15:12:00,
2013-01-17 09:22:00,27.0,24.0,30.53,North,355,3.0,8.0,89,0.00,,,0.00,,2013-01-17 15:22:00,
2013-01-17 09:33:00,28.0,25.0,30.54,NW,316,4.0,9.0,88,0.00,,,0.00,,2013-01-17 15:33:00,
2013-01-17 09:43:00,28.0,25.0,30.54,NW,316,4.0,9.0,88,0.00,,,0.00,,2013-01-17 15:43:00,
2013-01-17 09:53:00,28.0,24.0,30.55,NNW,328,3.0,10.0,86,0.00,,,0.00,,2013-01-17 15:53:00,
2013-01-17 10:02:00,29.0,25.0,30.55,NNW,338,4.0,11.0,85,0.00,,,0.00,,2013-01-17 16:02:00,
2013-01-17 10:12:00,29.0,25.0,30.55,NNW,338,4.0,11.0,85,0.00,,,0.00,,2013-01-17 16:12:00,
2013-01-17 10:22:00,29.0,25.0,30.55,NNW,338,4.0,11.0,85,0.00,,,0.00,,2013-01-17 16:22:00,
2013-01-17 10:33:00,31.0,26.0,30.57,NW,323,1.0,13.0,81,0.00,,,0.00,,2013-01-17 16:33:00,
2013-01-17 10:43:00,31.0,26.0,30.57,NW,323,1.0,13.0,81,0.00,,,0.00,,2013-01-17 16:43:00,
2013-01-17 10:53:00,32.0,26.0,30.58,North,11,1.0,9.0,77,0.00,,,0.00,,2013-01-17 16:53:00,
2013-01-17 11:03:00,32.0,26.0,30.58,North,11,1.0,9.0,77,0.00,,,0.00,,2013-01-17 17:03:00,
2013-01-17 11:12:00,32.0,26.0,30.58,North,11,1.0,9.0,77,0.00,,,0.00,,2013-01-17 17:12:00,
2013-01-17 11:22:00,32.0,26.0,30.58,North,11,1.0,9.0,77,0.00,,,0.00,,2013-01-17 17:22:00,
2013-01-17 11:53:00,35.0,25.0,30.57,NNW,346,1.0,6.0,66,0.00,,,0.00,,2013-01-17 17:53:00,
2013-01-17 12:03:00,37.0,26.0,30.56,NNE,15,0.0,7.0,63,0.00,,,0.00,,2013-01-17 18:03:00,
2013-01-17 12:12:00,37.0,26.0,30.56,NNE,15,0.0,7.0,63,0.00,,,0.00,,2013-01-17 18:12:00,
2013-01-17 12:22:00,38.0,25.0,30.55,NW,320,1.0,6.0,59,0.00,,,0.00,,2013-01-17 18:22:00,
2013-01-17 12:33:00,38.0,24.0,30.55,NNW,333,2.0,7.0,57,0.00,,,0.00,,2013-01-17 18:33:00,
2013-01-17 12:43:00,38.0,24.0,30.55,NNW,333,2.0,7.0,57,0.00,,,0.00,,2013-01-17 18:43:00,
2013-01-17 12:53:00,39.0,25.0,30.55,NNW,341,3.0,8.0,56,0.00,,,0.00,,2013-01-17 18:53:00,
2013-01-17 13:03:00,39.0,24.0,30.54,NNW,337,2.0,9.0,55,0.00,,,0.00,,2013-01-17 19:03:00,
2013-01-17 13:12:00,39.0,24.0,30.54,NNW,337,2.0,9.0,55,0.00,,,0.00,,2013-01-17 19:12:00,
2013-01-17 13:23:00,40.0,25.0,30.53,NNW,338,0.0,8.0,55,0.00,,,0.00,,2013-01-17 19:23:00,
2013-01-17 13:33:00,40.0,25.0,30.53,NNW,338,0.0,8.0,55,0.00,,,0.00,,2013-01-17 19:33:00,
2013-01-17 13:43:00,40.0,25.0,30.53,NNW,338,0.0,8.0,55,0.00,,,0.00,,2013-01-17 19:43:00,
2013-01-17 13:53:00,41.0,25.0,30.52,NNW,336,0.0,6.0,52,0.00,,,0.00,,2013-01-17 19:53:00,
2013-01-17 14:03:00,42.0,26.0,30.51,NW,311,0.0,6.0,52,0.00,,,0.00,,2013-01-17 20:03:00,
2013-01-17 14:12:00,42.0,26.0,30.51,NW,311,0.0,6.0,52,0.00,,,0.00,,2013-01-17 20:12:00,
2013-01-17 14:23:00,42.0,26.0,30.51,NW,311,0.0,6.0,52,0.00,,,0.00,,2013-01-17 20:23:00,
2013-01-17 14:33:00,43.0,26.0,30.50,NW,326,2.0,7.0,51,0.00,,,0.00,,2013-01-17 20:33:00,
2013-01-17 14:43:00,43.0,26.0,30.50,NW,326,2.0,7.0,51,0.00,,,0.00,,2013-01-17 20:43:00,
2013-01-17 14:54:00,43.0,27.0,30.50,NNW,334,1.0,7.0,52,0.00,,,0.00,,2013-01-17 20:54:00,
2013-01-17 15:03:00,44.0,27.0,30.50,NW,322,3.0,7.0,50,0.00,,,0.00,,2013-01-17 21:03:00,
2013-01-17 15:12:00,44.0,27.0,30.50,NW,322,3.0,7.0,50,0.00,,,0.00,,2013-01-17 21:12:00,
2013-01-17 15:23:00,44.0,27.0,30.50,NNE,18,0.0,4.0,51,0.00,,,0.00,,2013-01-17 21:23:00,
2013-01-17 15:33:00,44.0,28.0,30.50,North,5,1.0,7.0,52,0.00,,,0.00,,2013-01-17 21:33:00,
2013-01-17 15:43:00,44.0,28.0,30.50,North,5,1.0,7.0,52,0.00,,,0.00,,2013-01-17 21:43:00,
2013-01-17 15:52:00,44.0,28.0,30.51,NNW,332,0.0,6.0,52,0.00,,,0.00,,2013-01-17 21:52:00,
2013-01-17 16:03:00,43.0,28.0,30.51,NNW,331,1.0,7.0,55,0.00,,,0.00,,2013-01-17 22:03:00,
2013-01-17 16:12:00,43.0,28.0,30.51,NNW,331,1.0,7.0,55,0.00,,,0.00,,2013-01-17 22:12:00,
2013-01-17 16:23:00,43.0,28.0,30.51,NNW,337,0.0,3.0,55,0.00,,,0.00,,2013-01-17 22:23:00,
2013-01-17 16:33:00,43.0,28.0,30.52,NNW,340,0.0,4.0,55,0.00,,,0.00,,2013-01-17 22:33:00,
2013-01-17 16:42:00,43.0,28.0,30.52,NNW,340,0.0,4.0,55,0.00,,,0.00,,2013-01-17 22:42:00,
2013-01-17 16:52:00,43.0,28.0,30.52,NNW,340,0.0,4.0,56,0.00,,,0.00,,2013-01-17 22:52:00,
2013-01-17 17:03:00,43.0,28.0,30.52,NNW,340,0.0,4.0,56,0.00,,,0.00,,2013-01-17 23:03:00,
2013-01-17 17:12:00,43.0,28.0,30.52,NNW,340,0.0,4.0,56,0.00,,,0.00,,2013-01-17 23:12:00,
2013-01-17 17:22:00,42.0,28.0,30.52,NNW,340,0.0,0.0,57,0.00,,,0.00,,2013-01-17 23:22:00,
2013-01-17 17:33:00,41.0,28.0,30.51,NNW,340,0.0,0.0,59,0.00,,,0.00,,2013-01-17 23:33:00,
2013-01-17 17:43:00,41.0,28.0,30.51,NNW,340,0.0,0.0,59,0.00,,,0.00,,2013-01-17 23:43:00,
2013-01-17 17:53:00,40.0,27.0,30.51,NNW,340,0.0,0.0,60,0.00,,,0.00,,2013-01-17 23:53:00,
2013-01-17 18:02:00,39.0,27.0,30.51,NNW,340,0.0,0.0,61,0.00,,,0.00,,2013-01-18 00:02:00,
2013-01-17 18:12:00,39.0,27.0,30.51,NNW,340,0.0,0.0,61,0.00,,,0.00,,2013-01-18 00:12:00,
2013-01-17 18:23:00,38.0,26.0,30.52,NNW,340,0.0,0.0,62,0.00,,,0.00,,2013-01-18 00:23:00,
2013-01-17 18:32:00,38.0,26.0,30.52,NNW,340,0.0,0.0,62,0.00,,,0.00,,2013-01-18 00:32:00,
2013-01-17 18:42:00,37.0,26.0,30.52,NNW,340,0.0,0.0,65,0.00,,,0.00,,2013-01-18 00:42:00,
2013-01-17 18:52:00,36.0,26.0,30.52,NNW,340,0.0,0.0,67,0.00,,,0.00,,2013-01-18 00:52:00,
2013-01-17 19:03:00,36.0,27.0,30.51,NNW,340,0.0,0.0,69,0.00,,,0.00,,2013-01-18 01:03:00,
2013-01-17 19:12:00,36.0,27.0,30.51,NNW,340,0.0,0.0,69,0.00,,,0.00,,2013-01-18 01:12:00,
2013-01-17 19:22:00,35.0,26.0,30.52,NNW,340,0.0,0.0,69,0.00,,,0.00,,2013-01-18 01:22:00,
2013-01-17 19:33:00,35.0,26.0,30.52,NNW,340,0.0,0.0,70,0.00,,,0.00,,2013-01-18 01:33:00,
2013-01-17 19:42:00,35.0,26.0,30.52,NNW,340,0.0,0.0,70,0.00,,,0.00,,2013-01-18 01:42:00,
2013-01-17 19:52:00,35.0,27.0,30.52,NNW,340,0.0,0.0,71,0.00,,,0.00,,2013-01-18 01:52:00,
2013-01-17 20:02:00,34.0,26.0,30.52,NNW,340,0.0,0.0,72,0.00,,,0.00,,2013-01-18 02:02:00,
2013-01-17 20:12:00,34.0,26.0,30.52,NNW,340,0.0,0.0,72,0.00,,,0.00,,2013-01-18 02:12:00,
2013-01-17 20:22:00,34.0,26.0,30.52,NNW,340,0.0,0.0,72,0.00,,,0.00,,2013-01-18 02:22:00,
2013-01-17 20:32:00,33.0,26.0,30.53,NNW,340,0.0,0.0,74,0.00,,,0.00,,2013-01-18 02:32:00,
2013-01-17 20:42:00,33.0,26.0,30.53,NNW,340,0.0,0.0,74,0.00,,,0.00,,2013-01-18 02:42:00,
2013-01-17 20:52:00,33.0,26.0,30.53,NNW,340,0.0,0.0,74,0.00,,,0.00,,2013-01-18 02:52:00,
2013-01-17 21:02:00,33.0,26.0,30.53,NNW,340,0.0,0.0,75,0.00,,,0.00,,2013-01-18 03:02:00,
2013-01-17 21:12:00,33.0,26.0,30.53,NNW,340,0.0,0.0,75,0.00,,,0.00,,2013-01-18 03:12:00,
2013-01-17 21:22:00,33.0,26.0,30.52,NNW,340,0.0,0.0,75,0.00,,,0.00,,2013-01-18 03:22:00,
2013-01-17 21:33:00,33.0,26.0,30.52,NNW,341,0.0,2.0,75,0.00,,,0.00,,2013-01-18 03:33:00,
2013-01-17 21:42:00,33.0,26.0,30.52,NNW,341,0.0,2.0,75,0.00,,,0.00,,2013-01-18 03:42:00,
2013-01-17 21:52:00,33.0,26.0,30.52,NNW,342,0.0,1.0,74,0.00,,,0.00,,2013-01-18 03:52:00,
2013-01-17 22:02:00,34.0,27.0,30.51,North,350,0.0,2.0,74,0.00,,,0.00,,2013-01-18 04:02:00,
2013-01-17 22:12:00,34.0,27.0,30.51,North,350,0.0,2.0,74,0.00,,,0.00,,2013-01-18 04:12:00,
2013-01-17 22:22:00,35.0,27.0,30.50,SSE,166,2.0,9.0,71,0.00,,,0.00,,2013-01-18 04:22:00,
2013-01-17 22:32:00,34.0,26.0,30.50,SSE,150,0.0,5.0,71,0.00,,,0.00,,2013-01-18 04:32:00,
2013-01-17 22:42:00,34.0,26.0,30.50,SSE,150,0.0,5.0,71,0.00,,,0.00,,2013-01-18 04:42:00,
2013-01-17 22:52:00,34.0,26.0,30.50,SSE,159,1.0,7.0,71,0.00,,,0.00,,2013-01-18 04:52:00,
2013-01-17 23:03:00,33.0,25.0,30.50,SE,137,0.0,6.0,72,0.00,,,0.00,,2013-01-18 05:03:00,
2013-01-17 23:12:00,33.0,25.0,30.50,SE,137,0.0,6.0,72,0.00,,,0.00,,2013-01-18 05:12:00,
2013-01-17 23:22:00,33.0,25.0,30.50,SSE,155,0.0,6.0,72,0.00,,,0.00,,2013-01-18 05:22:00,
2013-01-17 23:33:00,33.0,25.0,30.50,SSE,163,0.0,3.0,72,0.00,,,0.00,,2013-01-18 05:33:00,
2013-01-17 23:42:00,33.0,25.0,30.50,SSE,163,0.0,3.0,72,0.00,,,0.00,,2013-01-18 05:42:00,
2013-01-17 23:52:00,33.0,25.0,30.50,SSE,149,1.0,5.0,72,0.00,,,0.00,,2013-01-18 05:52:00,